Location: Unspecified
(33.6682°S, 0.0000°E)
Time: 13:11:05
(UTC+00:00)

Tiros 1 despin weight - Pass Details

Date: 21 June 2019
Orbit: 594 x 642 km, 48.2° (Epoch: 24 August)

Event Time Altitude Azimuth Distance (km) Brightness Sun altitude
Rises 18:22:27 0° 238° (WSW) 2,965 ? -16.8°
Reaches altitude 10° 18:24:54 10° 244° (WSW) 2,046 ? -17.3°
Maximum altitude 18:29:22 43° 315° (NW) 894 ? -18.2°
Drops below altitude 10° 18:33:45 10° 27° (NNE) 2,005 ? -19.1°
Enters shadow 18:35:52 - 33° (NNE) 2,801 ? -19.5°
Sets 18:36:07 0° 33° (NNE) 2,898 - -19.5°
